When you browse on this site, cookies collect data to enhance your experience and personalize the content and advertising you see.
Visit our Privacy Policy to learn more. By continuing to use the site, you agree to this use of cookies and data.
  • In Hungary
  • List of Countries
  • For 7 days
  • Water Temperature
  • Weather Map
  • News
  • Weather Widgets
  • user-avatar
    Login

    Hourly Weather Stavky

    Today, 25 August, Sunday

    Time Temperature Precipitation Wind Pressure Humidity
    00:00 +19°C° 0 mm 2 mps 741 mmHg 91%
    01:00 +19°C° 0 mm 2 mps 741 mmHg 91%
    02:00 +19°C° 0 mm 1 mps 740 mmHg 82%
    03:00 +18°C° 0 mm 1 mps 740 mmHg 86%
    04:00 +18°C° 0 mm 1 mps 740 mmHg 86%
    05:00 +18°C° 0 mm 1 mps 740 mmHg 88%
    06:00 +16°C° 0 mm 1 mps 740 mmHg 92%
    07:00 +17°C° 0 mm 2 mps 740 mmHg 90%
    08:00 +20°C° 0 mm 2 mps 741 mmHg 82%
    09:00 +22°C° 0 mm 3 mps 741 mmHg 75%
    10:00 +25°C° 0 mm 3 mps 741 mmHg 69%
    11:00 +26°C° 0 mm 3 mps 741 mmHg 66%
    12:00 +28°C° 0 mm 3 mps 741 mmHg 63%
    13:00 +28°C° 0 mm 4 mps 741 mmHg 61%
    14:00 +31°C° 0 mm 3 mps 741 mmHg 46%
    15:00 +30°C° 0 mm 3 mps 740 mmHg 50%
    16:00 +30°C° 0 mm 3 mps 740 mmHg 51%
    17:00 +30°C° 0 mm 3 mps 740 mmHg 54%
    18:00 +29°C° 0 mm 4 mps 740 mmHg 60%
    19:00 +27°C° 0 mm 3 mps 740 mmHg 70%
    20:00 +25°C° 0 mm 3 mps 740 mmHg 78%
    21:00 +23°C° 0 mm 4 mps 740 mmHg 81%
    22:00 +22°C° 0 mm 4 mps 740 mmHg 82%
    23:00 +21°C° 0 mm 3 mps 740 mmHg 83%

    Tomorrow, 26 August, Monday

    Time Temperature Precipitation Wind Pressure Humidity
    00:00 +20°C° 0 mm 2 mps 740 mmHg 86%
    01:00 +20°C° 0 mm 2 mps 741 mmHg 87%
    02:00 +19°C° 0 mm 2 mps 741 mmHg 88%
    03:00 +19°C° 0 mm 2 mps 741 mmHg 89%
    04:00 +18°C° 0 mm 2 mps 740 mmHg 92%
    05:00 +18°C° 0 mm 2 mps 740 mmHg 94%
    06:00 +18°C° 0 mm 2 mps 740 mmHg 94%
    07:00 +19°C° 0 mm 2 mps 741 mmHg 89%
    08:00 +21°C° 0 mm 2 mps 741 mmHg 80%
    09:00 +24°C° 0 mm 2 mps 741 mmHg 75%
    10:00 +25°C° 0 mm 2 mps 742 mmHg 72%
    11:00 +27°C° 0 mm 3 mps 742 mmHg 68%
    12:00 +28°C° 0 mm 3 mps 742 mmHg 64%
    13:00 +29°C° 0 mm 4 mps 741 mmHg 59%
    14:00 +30°C° 0 mm 4 mps 741 mmHg 56%
    15:00 +30°C° 0 mm 3 mps 741 mmHg 54%
    16:00 +29°C° 0 mm 3 mps 741 mmHg 54%
    17:00 +29°C° 0 mm 2 mps 740 mmHg 55%
    18:00 +28°C° 0 mm 3 mps 740 mmHg 65%
    19:00 +25°C° 0 mm 5 mps 740 mmHg 76%
    20:00 +24°C° 0 mm 1 mps 740 mmHg 82%
    21:00 +24°C° 0 mm 1 mps 740 mmHg 83%
    22:00 +22°C° 0 mm 0 mps 741 mmHg 83%
    23:00 +23°C° 0 mm 2 mps 741 mmHg 87%

    Day after tomorrow, 27 August, Tuesday

    Time Temperature Precipitation Wind Pressure Humidity
    00:00 +21°C° 0 mm 2 mps 741 mmHg 90%
    01:00 +20°C° 0 mm 2 mps 740 mmHg 94%
    02:00 +19°C° 0 mm 2 mps 740 mmHg 96%
    03:00 +18°C° 0 mm 2 mps 740 mmHg 97%
    04:00 +18°C° 0 mm 2 mps 740 mmHg 98%
    05:00 +18°C° 0 mm 2 mps 740 mmHg 99%
    06:00 +17°C° 0 mm 2 mps 740 mmHg 100%
    07:00 +18°C° 0 mm 2 mps 741 mmHg 99%
    08:00 +20°C° 0 mm 2 mps 741 mmHg 97%
    09:00 +23°C° 0 mm 2 mps 741 mmHg 95%
    10:00 +24°C° 0 mm 3 mps 742 mmHg 91%
    11:00 +25°C° 0 mm 3 mps 741 mmHg 86%
    12:00 +26°C° 0 mm 4 mps 742 mmHg 79%
    13:00 +26°C° 0 mm 4 mps 741 mmHg 78%
    14:00 +27°C° 0 mm 4 mps 741 mmHg 77%
    15:00 +27°C° 0 mm 3 mps 741 mmHg 73%
    16:00 +26°C° 0 mm 4 mps 740 mmHg 75%
    17:00 +26°C° 0 mm 4 mps 740 mmHg 74%
    18:00 +26°C° 0 mm 3 mps 740 mmHg 77%
    19:00 +24°C° 0 mm 3 mps 740 mmHg 87%
    20:00 +23°C° 0 mm 2 mps 741 mmHg 92%
    21:00 +21°C° 0 mm 2 mps 741 mmHg 94%
    22:00 +21°C° 0 mm 2 mps 741 mmHg 98%
    23:00 +20°C° 0 mm 2 mps 741 mmHg 99%

    28 August, Wednesday

    Time Temperature Precipitation Wind Pressure Humidity
    00:00 +20°C° 0 mm 2 mps 741 mmHg 100%
    01:00 +19°C° 0 mm 2 mps 740 mmHg 100%
    02:00 +19°C° 0 mm 2 mps 740 mmHg 100%
    03:00 +19°C° 0 mm 2 mps 740 mmHg 100%
    04:00 +18°C° 0 mm 2 mps 740 mmHg 100%
    05:00 +18°C° 0 mm 2 mps 740 mmHg 100%
    06:00 +18°C° 0 mm 2 mps 740 mmHg 100%
    07:00 +18°C° 0 mm 2 mps 740 mmHg 100%
    08:00 +19°C° 0 mm 2 mps 740 mmHg 100%
    09:00 +19°C° 0 mm 2 mps 740 mmHg 100%
    10:00 +20°C° 0 mm 3 mps 741 mmHg 98%
    11:00 +21°C° 0 mm 3 mps 741 mmHg 97%
    12:00 +22°C° 0 mm 4 mps 741 mmHg 89%
    13:00 +23°C° 0 mm 4 mps 741 mmHg 85%
    14:00 +25°C° 0 mm 4 mps 740 mmHg 84%
    15:00 +25°C° 0 mm 4 mps 740 mmHg 83%
    16:00 +25°C° 0 mm 4 mps 739 mmHg 84%
    17:00 +25°C° 0 mm 4 mps 739 mmHg 86%
    18:00 +24°C° 0 mm 3 mps 739 mmHg 89%
    19:00 +22°C° 0 mm 3 mps 739 mmHg 94%
    20:00 +21°C° 0 mm 3 mps 739 mmHg 97%
    21:00 +20°C° 0 mm 2 mps 739 mmHg 98%
    22:00 +20°C° 0 mm 2 mps 739 mmHg 99%
    23:00 +19°C° 0 mm 2 mps 739 mmHg 99%

    29 August, Thursday

    Time Temperature Precipitation Wind Pressure Humidity
    00:00 +19°C° 0 mm 2 mps 739 mmHg 100%
    01:00 +19°C° 0 mm 2 mps 739 mmHg 100%
    02:00 +18°C° 0 mm 2 mps 739 mmHg 100%
    03:00 +18°C° 0 mm 2 mps 739 mmHg 100%
    04:00 +18°C° 0 mm 2 mps 739 mmHg 100%
    05:00 +17°C° 0 mm 2 mps 739 mmHg 100%
    06:00 +18°C° 0 mm 3 mps 739 mmHg 100%
    07:00 +18°C° 0 mm 3 mps 739 mmHg 100%
    08:00 +19°C° 0 mm 3 mps 739 mmHg 100%
    09:00 +19°C° 0 mm 4 mps 739 mmHg 99%
    10:00 +19°C° 0 mm 4 mps 740 mmHg 98%
    11:00 +20°C° 0 mm 4 mps 739 mmHg 97%
    12:00 +21°C° 0 mm 4 mps 740 mmHg 95%
    13:00 +22°C° 0 mm 4 mps 739 mmHg 93%
    14:00 +22°C° 0 mm 5 mps 739 mmHg 90%

    30 August, Friday

    Time Temperature Precipitation Wind Pressure Humidity
    Show more